H1 CPF 2 NER 2021 3 2 9 061 01 glonass138 H2 1805301 9138 43508 2021 3 2 0 0 0 2021 3 5 23 45 0 900 1 1 0 0 0 1 H9 10 0 59275 0.00000 0 -23334324.833 4464926.730 -9243994.142 10 0 59275 900.00000 0 -22065005.086 4075816.686 -12098378.193 10 0 59275 1800.00000 0 -20527972.488 3440370.503 -14717305.726 10 0 59275 2700.00000 0 -18780386.779 2536805.509 -17049814.024 10 0 59275 3600.00000 0 -16884696.965 1355272.837 -19050529.804 10 0 59275 4500.00000 0 -14906074.229 -101469.845 -20680555.023 10 0 59275 5400.00000 0 -12909750.455 -1817921.331 -21908224.140 10 0 59275 6300.00000 0 -10958374.319 -3766242.532 -22709718.195 10 0 59275 7200.00000 0 -9109495.939 -5907188.383 -23069524.081 10 0 59275 8100.00000 0 -7413285.128 -8191527.570 -22980730.642 10 0 59275 9000.00000 0 -5910578.149 -10561891.181 -22445156.402 10 0 59275 9900.00000 0 -4631333.804 -12954973.300 -21473307.057 10 0 59275 10800.00000 0 -3593562.142 -15303992.065 -20084164.094 10 0 59275 11700.00000 0 -2802769.120 -17541308.841 -18304809.082 10 0 59275 12600.00000 0 -2251938.846 -19601096.511 -16169891.288 10 0 59275 13500.00000 0 -1922052.395 -21421946.022 -13720949.202 10 0 59275 14400.00000 0 -1783119.685 -22949302.858 -11005599.294 10 0 59275 15300.00000 0 -1795679.520 -24137632.194 -8076607.911 10 0 59275 16200.00000 0 -1912703.190 -24952222.900 -4990864.470 10 0 59275 17100.00000 0 -2081820.290 -25370555.653 -1808275.927 10 0 59275 18000.00000 0 -2247771.922 -25383178.611 1409395.805 10 0 59275 18900.00000 0 -2354987.081 -24994054.775 4599730.846 10 0 59275 19800.00000 0 -2350172.937 -24220367.191 7700859.535 10 0 59275 20700.00000 0 -2184809.414 -23091790.828 10652658.291 10 0 59275 21600.00000 0 -1817442.523 -21649262.118 13397910.206 10 0 59275 22500.00000 0 -1215679.592 -19943297.970 15883408.198 10 0 59275 23400.00000 0 -357802.076 -18031934.695 18060979.784 10 0 59275 24300.00000 0 766072.290 -15978372.789 19888414.265 10 0 59275 25200.00000 0 2153327.485 -13848425.499 21330275.115 10 0 59275 26100.00000 0 3788715.947 -11707876.962 22358582.495 10 0 59275 27000.00000 0 5644760.884 -9619859.228 22953353.363 10 0 59275 27900.00000 0 7682678.803 -7642356.428 23102989.215 10 0 59275 28800.00000 0 9853785.367 -5825939.134 22804504.123 10 0 59275 29700.00000 0 12101327.738 -4211822.293 22063588.628 10 0 59275 30600.00000 0 14362668.858 -2830326.804 20894507.784 10 0 59275 31500.00000 0 16571734.192 -1699808.324 19319834.678 10 0 59275 32400.00000 0 18661620.403 -826097.467 17370023.586 10 0 59275 33300.00000 0 20567258.211 -202474.537 15082829.943 10 0 59275 34200.00000 0 22228018.837 189820.330 12502587.275 10 0 59275 35100.00000 0 23590155.323 380563.144 9679354.089 10 0 59275 36000.00000 0 24608976.344 409051.419 6667946.449 10 0 59275 36900.00000 0 25250660.808 322202.079 3526874.610 10 0 59275 37800.00000 0 25493636.318 172322.690 317204.247 10 0 59275 38700.00000 0 25329462.708 14650.874 -2898635.371 10 0 59275 39600.00000 0 24763182.606 -95233.059 -6058072.370 10 0 59275 40500.00000 0 23813123.565 -104009.574 -9099617.859 10 0 59275 41400.00000 0 22510159.595 36872.150 -11964071.287 10 0 59275 42300.00000 0 20896462.964 368889.398 -14595680.982 10 0 59275 43200.00000 0 19023798.822 924443.216 -16943236.420 10 0 59275 44100.00000 0 16951434.580 1725243.923 -18961070.226 10 0 59275 45000.00000 0 14743752.282 2781154.243 -20609949.877 10 0 59275 45900.00000 0 12467664.526 4089539.960 -21857841.643 10 0 59275 46800.00000 0 10189942.533 5635156.356 -22680531.967 10 0 59275 47700.00000 0 7974568.376 7390575.906 -23062094.558 10 0 59275 48600.00000 0 5880221.936 9317139.816 -22995194.593 10 0 59275 49500.00000 0 3958007.068 11366394.012 -22481224.745 10 0 59275 50400.00000 0 2249511.186 13481949.679 -21530270.953 10 0 59275 51300.00000 0 785278.111 15601690.870 -20160909.185 10 0 59275 52200.00000 0 -416243.525 17660237.111 -18399837.550 10 0 59275 53100.00000 0 -1349233.983 19591558.293 -16281351.298 10 0 59275 54000.00000 0 -2020497.781 21331632.835 -13846671.145 10 0 59275 54900.00000 0 -2448922.780 22821038.328 -11143138.098 10 0 59275 55800.00000 0 -2664427.513 24007366.596 -8223290.619 10 0 59275 56700.00000 0 -2706442.673 24847362.557 -5143842.137 10 0 59275 57600.00000 0 -2621992.191 25308697.790 -1964578.845 10 0 59275 58500.00000 0 -2463455.921 25371305.005 1252800.618 10 0 59275 59400.00000 0 -2286109.285 25028217.997 4445881.009 10 0 59275 60300.00000 0 -2145544.376 24285882.421 7552738.639 10 0 59275 61200.00000 0 -2095081.788 23163924.759 10513138.329 10 0 59275 62100.00000 0 -2183282.672 21694389.521 13269696.204 10 0 59275 63000.00000 0 -2451666.125 19920476.719 15768986.098 10 0 59275 63900.00000 0 -2932728.207 17894832.412 17962568.567 10 0 59275 64800.00000 0 -3648346.207 15677463.452 19807923.222 10 0 59275 65700.00000 0 -4608635.622 13333362.888 21269267.058 10 0 59275 66600.00000 0 -5811308.420 10929944.320 22318243.597 10 0 59275 67500.00000 0 -7241560.394 8534391.101 22934470.196 10 0 59275 68400.00000 0 -8872493.502 6211029.606 23105933.395 10 0 59275 69300.00000 0 -10666056.941 4018834.762 22829224.866 10 0 59275 70200.00000 0 -12574469.266 2009170.481 22109613.355 10 0 59275 71100.00000 0 -14542063.874 223857.980 20960950.811 10 0 59275 72000.00000 0 -16507482.435 -1306348.371 19405413.829 10 0 59275 72900.00000 0 -18406126.143 -2562814.836 17473084.481 10 0 59275 73800.00000 0 -20172763.600 -3539568.260 15201377.540 10 0 59275 74700.00000 0 -21744187.013 -4243299.860 12634324.114 10 0 59275 75600.00000 0 -23061805.887 -4692833.006 9821724.548 10 0 59275 76500.00000 0 -24074069.434 -4918077.563 6818186.189 10 0 59275 77400.00000 0 -24738615.488 -4958515.069 3682064.282 10 0 59275 78300.00000 0 -25024054.864 -4861279.047 474326.380 10 0 59275 79200.00000 0 -24911315.074 -4678912.152 -2742637.393 10 0 59275 80100.00000 0 -24394485.757 -4466895.797 -5906234.451 10 0 59275 81000.00000 0 -23481129.209 -4281057.872 -8954895.664 10 0 59275 81900.00000 0 -22192042.053 -4174969.543 -11829282.251 10 0 59275 82800.00000 0 -20560477.495 -4197442.673 -14473449.041 10 0 59275 83700.00000 0 -18630860.546 -4390235.162 -16835940.562 10 0 59275 84600.00000 0 -16457050.091 -4786062.599 -18870797.912 10 0 59275 85500.00000 0 -14100220.937 -5407001.391 -20538456.239 10 0 59276 0.00000 0 -11626454.852 -6263351.745 -21806515.249 10 0 59276 900.00000 0 -9104141.563 -7353009.693 -22650367.916 10 0 59276 1800.00000 0 -6601298.633 -8661373.941 -23053675.251 10 0 59276 2700.00000 0 -4182922.267 -10161793.930 -23008678.681 10 0 59276 3600.00000 0 -1908478.594 -11816538.618 -22516344.422 10 0 59276 4500.00000 0 170359.908 -13578246.799 -21586337.577 10 0 59276 5400.00000 0 2011639.867 -15391797.811 -20236827.117 10 0 59276 6300.00000 0 3584635.286 -17196524.534 -18494125.894 10 0 59276 7200.00000 0 4870877.242 -18928676.067 -16392173.088 10 0 59276 8100.00000 0 5864663.796 -20524027.057 -13971869.384 10 0 59276 9000.00000 0 6573030.753 -21920524.612 -11280277.935 10 0 59276 9900.00000 0 7015186.352 -23060862.003 -8369706.834 10 0 59276 10800.00000 0 7221435.511 -23894871.545 -5296690.993 10 0 59276 11700.00000 0 7231640.539 -24381636.603 -2120893.308 10 0 59276 12600.00000 0 7093284.533 -24491234.386 1096053.365 10 0 59276 13500.00000 0 6859220.266 -24206036.757 4291740.883 10 0 59276 14400.00000 0 6585200.375 -23521514.775 7404193.907 10 0 59276 15300.00000 0 6327293.640 -22446513.441 10373067.950 10 0 59276 16200.00000 0 6139296.696 -21002985.317 13140814.329 10 0 59276 17100.00000 0 6070250.504 -19225194.097 15653789.804 10 0 59276 18000.00000 0 6162166.298 -17158421.296 17863289.789 10 0 59276 18900.00000 0 6448056.780 -14857229.682 19726485.794 10 0 59276 19800.00000 0 6950355.487 -12383355.180 21207249.658 10 0 59276 20700.00000 0 7679791.014 -9803314.347 22276849.292 10 0 59276 21600.00000 0 8634763.845 -7185825.881 22914503.151 10 0 59276 22500.00000 0 9801252.716 -4599152.179 23107783.206 10 0 59276 23400.00000 0 11153255.494 -2108470.277 22852858.800 10 0 59276 24300.00000 0 12653747.459 226619.889 22154576.675 10 0 59276 25200.00000 0 14256118.399 2354347.498 21026375.195 10 0 59276 26100.00000 0 15906029.928 4232690.409 19490033.750 10 0 59276 27000.00000 0 17543616.779 5830883.212 17575261.286 10 0 59276 27900.00000 0 19105941.232 7130451.528 15319130.787 10 0 59276 28800.00000 0 20529598.699 8125729.708 12765369.612 10 0 59276 29700.00000 0 21753365.771 8823840.657 9963518.409 10 0 59276 30600.00000 0 22720779.622 9244138.844 6967974.059 10 0 59276 31500.00000 0 23382539.930 9417140.166 3836934.823 10 0 59276 32400.00000 0 23698631.566 9382984.135 631267.985 10 0 59276 33300.00000 0 23640077.570 9189493.783 -2586677.791 10 0 59276 34200.00000 0 23190247.349 8889915.963 -5754291.612 10 0 59276 35100.00000 0 22345663.746 8540438.550 -8809926.542 10 0 59276 36000.00000 0 21116273.762 8197590.728 -11694107.959 10 0 59276 36900.00000 0 19525170.597 7915637.582 -14350699.473 10 0 59276 37800.00000 0 17607777.983 7744080.553 -16728002.810 10 0 59276 38700.00000 0 15410530.590 7725370.675 -18779769.523 10 0 59276 39600.00000 0 12989105.747 7892932.341 -20466104.276 10 0 59276 40500.00000 0 10406280.535 8269581.957 -21754241.952 10 0 59276 41400.00000 0 7729503.934 8866408.878 -22619183.568 10 0 59276 42300.00000 0 5028285.617 9682166.251 -23044178.874 10 0 59276 43200.00000 0 2371510.232 10703197.658 -23021046.806 10 0 59276 44100.00000 0 -175211.121 11903902.812 -22550328.090 10 0 59276 45000.00000 0 -2552042.351 13247722.682 -21641267.662 10 0 59276 45900.00000 0 -4707173.451 14688602.675 -20311627.786 10 0 59276 46800.00000 0 -6598728.565 16172872.370 -18587335.938 10 0 59276 47700.00000 0 -8196252.864 17641462.859 -16501974.687 10 0 59276 48600.00000 0 -9481717.918 19032368.597 -14096123.751 10 0 59276 49500.00000 0 -10450005.384 20283250.467 -11416567.105 10 0 59276 50400.00000 0 -11108850.624 21334070.802 -8515380.804 10 0 59276 51300.00000 0 -11478250.568 22129649.774 -5448919.274 10 0 59276 52200.00000 0 -11589362.471 22622035.933 -2276719.883 10 0 59276 53100.00000 0 -11482941.423 22772591.398 939652.761 10 0 59276 54000.00000 0 -11207383.784 22553704.245 4137800.251 10 0 59276 54900.00000 0 -10816460.043 21950056.315 7255698.403 10 0 59276 55800.00000 0 -10366833.390 20959393.241 10232896.324 10 0 59276 56700.00000 0 -9915469.132 19592764.423 13011683.506 10 0 59276 57600.00000 0 -9517044.334 17874222.662 15538202.632 10 0 59276 58500.00000 0 -9221466.822 15839995.742 17763486.939 10 0 59276 59400.00000 0 -9071607.933 13537164.021 19644402.705 10 0 59276 60300.00000 0 -9101344.213 11021898.398 21144479.324 10 0 59276 61200.00000 0 -9333990.346 8357331.165 22234611.581 10 0 59276 62100.00000 0 -9781189.193 5611147.163 22893621.215 10 0 59276 63000.00000 0 -10442305.904 2852994.009 23108667.428 10 0 59276 63900.00000 0 -11304352.099 151817.699 22875498.583 10 0 59276 64800.00000 0 -12342444.234 -2426767.188 22198540.243 10 0 59276 65700.00000 0 -13520778.097 -4822964.777 21090817.439 10 0 59276 66600.00000 0 -14794079.886 -6985040.376 19573712.015 10 0 59276 67500.00000 0 -16109474.397 -8871225.842 17676558.836 10 0 59276 68400.00000 0 -17408693.205 -10451209.190 15436087.561 10 0 59276 69300.00000 0 -18630531.146 -11707146.735 12895719.746 10 0 59276 70200.00000 0 -19713448.564 -12634155.812 10104733.831 10 0 59276 71100.00000 0 -20598210.119 -13240267.674 7117313.364 10 0 59276 72000.00000 0 -21230448.863 -13545842.695 3991496.490 10 0 59276 72900.00000 0 -21563046.900 -13582472.781 788046.899 10 0 59276 73800.00000 0 -21558231.241 -13391417.623 -2430731.622 10 0 59276 74700.00000 0 -21189295.213 -13021641.376 -5602213.341 10 0 59276 75600.00000 0 -20441871.389 -12527533.482 -8664676.967 10 0 59276 76500.00000 0 -19314700.992 -11966411.000 -11558515.422 10 0 59276 77400.00000 0 -17819866.054 -11395909.166 -14227404.354 10 0 59276 78300.00000 0 -15982473.529 -10871371.711 -16619405.737 10 0 59276 79200.00000 0 -13839803.784 -10443352.406 -18687984.330 10 0 59276 80100.00000 0 -11439958.722 -10155334.395 -20392916.649 10 0 59276 81000.00000 0 -8840065.863 -10041764.434 -21701074.586 10 0 59276 81900.00000 0 -6104113.323 -10126485.512 -22587068.499 10 0 59276 82800.00000 0 -3300506.130 -10421634.234 -23033737.546 10 0 59276 83700.00000 0 -499445.654 -10927049.482 -23032478.215 10 0 59276 84600.00000 0 2229758.891 -11630217.117 -22583405.259 10 0 59276 85500.00000 0 4821335.275 -12506752.796 -21695342.455 10 0 59277 0.00000 0 7215540.029 -13521402.246 -20385643.989 10 0 59277 900.00000 0 9360894.301 -14629516.779 -18679850.124 10 0 59277 1800.00000 0 11216072.209 -15778941.276 -16611184.803 10 0 59277 2700.00000 0 12751363.465 -16912235.561 -14219904.434 10 0 59277 3600.00000 0 13949652.259 -17969135.142 -11552511.271 10 0 59277 4500.00000 0 14806872.054 -18889147.856 -8660846.580 10 0 59277 5400.00000 0 15331919.679 -19614177.064 -5601081.402 10 0 59277 6300.00000 0 15546033.977 -20091061.016 -2432624.568 10 0 59277 7200.00000 0 15481666.715 -20273921.497 783030.594 10 0 59277 8100.00000 0 15180894.737 -20126222.991 3983498.427 10 0 59277 9000.00000 0 14693441.391 -19622455.707 7106708.795 10 0 59277 9900.00000 0 14074391.408 -18749371.707 10092107.116 10 0 59277 10800.00000 0 13381696.115 -17506722.062 12881823.518 10 0 59277 11700.00000 0 12673574.321 -15907463.814 15421788.779 10 0 59277 12600.00000 0 12005918.325 -13977427.655 17662775.797 10 0 59277 13500.00000 0 11429814.036 -11754459.550 19561347.100 10 0 59277 14400.00000 0 10989279.140 -9287071.239 21080690.737 10 0 59277 15300.00000 0 10719314.077 -6632654.835 22191329.076 10 0 59277 16200.00000 0 10644347.351 -3855334.515 22871687.460 10 0 59277 17100.00000 0 10777140.385 -1023543.177 23108512.247 10 0 59277 18000.00000 0 11118197.965 1792576.716 22897130.377 10 0 59277 18900.00000 0 11655709.458 4523841.729 22241545.454 10 0 59277 19800.00000 0 12366023.959 7104656.148 21154368.083 10 0 59277 20700.00000 0 13214640.365 9475492.732 19656581.201 10 0 59277 21600.00000 0 14157671.884 11585123.517 17777144.002 10 0 59277 22500.00000 0 15143724.561 13392508.582 15552441.045 10 0 59277 23400.00000 0 16116111.798 14868264.501 13025586.136 10 0 59277 24300.00000 0 17015312.400 15995651.509 10245593.418 10 0 59277 25200.00000 0 17781568.990 16771038.210 7266430.901 10 0 59277 26100.00000 0 18357517.176 17203824.399 4145974.309 10 0 59277 27000.00000 0 18690734.051 17315825.378 944881.387 10 0 59277 27900.00000 0 18736097.531 17140143.897 -2274591.320 10 0 59277 28800.00000 0 18457855.704 16719577.657 -5449805.553 10 0 59277 29700.00000 0 17831317.342 16104630.189 -8518967.863 10 0 59277 30600.00000 0 16844090.714 15351209.925 -11422340.751 10 0 59277 31500.00000 0 15496816.955 14518115.631 -14103413.731 10 0 59277 32400.00000 0 13803365.774 13664415.517 -16510010.630 10 0 59277 33300.00000 0 11790484.070 12846831.759 -18595310.821 10 0 59277 34200.00000 0 9496911.434 12117241.820 -20318763.901 10 0 59277 35100.00000 0 6971998.951 11520402.729 -21646879.849 10 0 59277 36000.00000 0 4273888.679 11091994.756 -22553879.321 10 0 59277 36900.00000 0 1467329.677 10857067.114 -23022191.696 10 0 59277 37800.00000 0 -1378778.549 10828951.021 -23042791.687 10 0 59277 38700.00000 0 -4194013.061 11008685.537 -22615368.518 10 0 59277 39600.00000 0 -6909115.884 11384979.804 -21748324.988 10 0 59277 40500.00000 0 -9458632.410 11934712.622 -20458606.980 10 0 59277 41400.00000 0 -11783390.827 12623947.681 -18771367.198 10 0 59277 42300.00000 0 -13832720.180 13409421.068 -16719470.031 10 0 59277 43200.00000 0 -15566315.930 14240437.869 -14342847.436 10 0 59277 44100.00000 0 -16955676.601 15061097.536 -11687718.512 10 0 59277 45000.00000 0 -17985052.988 15812753.895 -8805688.104 10 0 59277 45900.00000 0 -18651871.932 16436605.888 -5752742.056 10 0 59277 46800.00000 0 -18966618.544 16876309.686 -2588158.726 10 0 59277 47700.00000 0 -18952183.414 17080501.919 626641.914 10 0 59277 48600.00000 0 -18642703.690 17005127.653 3829289.138 10 0 59277 49500.00000 0 -18081948.020 16615474.904 6957669.163 10 0 59277 50400.00000 0 -17321314.243 15887829.971 9951126.150 10 0 59277 51300.00000 0 -16417524.830 14810683.739 12751633.412 10 0 59277 52200.00000 0 -15430117.348 13385437.943 15304912.436 10 0 59277 53100.00000 0 -14418835.626 11626581.303 17561478.425 10 0 59277 54000.00000 0 -13441031.070 9561327.421 19477592.741 10 0 59277 54900.00000 0 -12549182.917 7228728.612 21016104.559 10 0 59277 55800.00000 0 -11788641.008 4678301.532 22147166.087 10 0 59277 56700.00000 0 -11195685.270 1968220.441 22848808.240 10 0 59277 57600.00000 0 -10795982.802 -836848.291 23107366.154 10 0 59277 58500.00000 0 -10603506.978 -3668182.008 22917746.546 10 0 59277 59400.00000 0 -10619963.833 -6455608.425 22283531.779 10 0 59277 60300.00000 0 -10834749.980 -9130176.462 21216918.251 10 0 59277 61200.00000 0 -11225444.303 -11626781.634 19738489.681 10 0 59277 62100.00000 0 -11758813.469 -13886638.034 17876828.754 10 0 59277 63000.00000 0 -12392289.772 -15859494.968 15667973.583 10 0 59277 63900.00000 0 -13075859.934 -17505506.292 13154728.415 10 0 59277 64800.00000 0 -13754285.975 -18796674.824 10385840.899 10 0 59277 65700.00000 0 -14369564.893 -19717811.431 7415060.979 10 0 59277 66600.00000 0 -14863523.402 -20266968.553 4300099.194 10 0 59277 67500.00000 0 -15180437.779 -20455329.877 1101504.386 10 0 59277 68400.00000 0 -15269567.326 -20306560.817 -2118517.214 10 0 59277 69300.00000 0 -15087493.206 -19855647.243 -5297317.977 10 0 59277 70200.00000 0 -14600162.425 -19147271.822 -8373035.499 10 0 59277 71100.00000 0 -13784548.969 -18233797.019 -11285805.058 10 0 59277 72000.00000 0 -12629860.415 -17172940.657 -13978933.179 10 0 59277 72900.00000 0 -11138237.574 -16025243.090 -16400008.560 10 0 59277 73800.00000 0 -9324916.307 -14851433.752 -18501927.976 10 0 59277 74700.00000 0 -7217843.642 -13709809.086 -20243816.569 10 0 59277 75600.00000 0 -4856763.355 -12653733.036 -21591824.440 10 0 59277 76500.00000 0 -2291808.646 -11729365.847 -22519784.082 10 0 59277 77400.00000 0 418339.653 -10973716.898 -23009716.089 10 0 59277 78300.00000 0 3208652.849 -10413103.308 -23052173.830 10 0 59277 79200.00000 0 6010220.719 -10062078.601 -22646420.914 10 0 59277 80100.00000 0 8752881.963 -9922875.758 -21800438.580 10 0 59277 81000.00000 0 11367909.685 -9985387.121 -20530763.448 10 0 59277 81900.00000 0 13790640.760 -10227680.993 -18862159.193 10 0 59277 82800.00000 0 15962940.232 -10617032.175 -16827128.935 10 0 59277 83700.00000 0 17835399.065 -11111422.092 -14465278.066 10 0 59277 84600.00000 0 19369174.742 -11661444.487 -11822540.074 10 0 59277 85500.00000 0 20537399.057 -12212535.663 -8950280.589 10 0 59278 0.00000 0 21326095.725 -12707434.683 -5904297.249 10 0 59278 900.00000 0 21734570.683 -13088769.135 -2743734.489 10 0 59278 1800.00000 0 21775260.705 -13301657.741 470064.455 10 0 59278 2700.00000 0 21473047.038 -13296218.530 3674747.270 10 0 59278 3600.00000 0 20864065.300 -13029878.042 6808159.912 10 0 59278 4500.00000 0 19994061.787 -12469383.038 9809548.466 10 0 59278 5400.00000 0 18916366.410 -11592430.241 12620732.302 10 0 59278 6300.00000 0 17689567.764 -10388845.090 15187226.126 10 0 59278 7200.00000 0 16374988.169 -8861259.542 17459289.526 10 0 59278 8100.00000 0 15034064.523 -7025259.815 19392884.355 10 0 59278 9000.00000 0 13725744.406 -4908996.912 20950522.117 10 0 59278 9900.00000 0 12504006.047 -2552275.077 22101985.614 10 0 59278 10800.00000 0 11415605.337 -5154.767 22824911.653 10 0 59278 11700.00000 0 10498143.501 2673873.310 23105224.011 10 0 59278 12600.00000 0 9778535.757 5420068.769 22937408.621 10 0 59278 13500.00000 0 9271944.563 8164887.900 22324625.627 10 0 59278 14400.00000 0 8981221.922 10838595.841 21278655.857 10 0 59278 15300.00000 0 8896884.136 13372937.490 19819682.082 10 0 59278 16200.00000 0 8997620.293 15703757.387 17975908.459 10 0 59278 17100.00000 0 9251313.547 17773460.531 15783024.370 10 0 59278 18000.00000 0 9616532.754 19533212.110 13283522.027 10 0 59278 18900.00000 0 10044432.091 20944784.658 10525879.941 10 0 59278 19800.00000 0 10480978.890 21981975.432 7563627.240 10 0 59278 20700.00000 0 10869415.682 22631534.360 4454306.466 10 0 59278 21600.00000 0 11152852.125 22893563.425 1258354.754 10 0 59278 22500.00000 0 11276876.555 22781370.391 -1962074.720 10 0 59278 23400.00000 0 11192075.662 22320782.877 -5144327.553 10 0 59278 24300.00000 0 10856354.389 21548951.754 -8226474.769 10 0 59278 25200.00000 0 10236956.388 20512694.558 -11148526.524 10 0 59278 26100.00000 0 9312098.023 19266449.304 -13853608.150 10 0 59278 27000.00000 0 8072145.325 17869925.673 -16289074.692 10 0 59278 27900.00000 0 6520282.723 16385553.332 -18407541.496 10 0 59278 28800.00000 0 4672644.107 14875835.733 -20167810.153 10 0 59278 29700.00000 0 2557899.607 13400721.399 -21535671.568 10 0 59278 30600.00000 0 216314.484 12015103.728 -22484570.546 10 0 59278 31500.00000 0 -2301681.020 10766554.590 -22996119.177 10 0 59278 32400.00000 0 -4937351.679 9693386.680 -23060449.553 10 0 59278 33300.00000 0 -7625869.853 8823125.458 -22676399.478 10 0 59278 34200.00000 0 -10298788.683 8171453.959 -21851528.164 10 0 59278 35100.00000 0 -12886673.257 7741673.678 -20601962.160 10 0 59278 36000.00000 0 -15321780.608 7524702.850 -18952074.981 10 0 59278 36900.00000 0 -17540677.404 7499610.891 -16934007.031 10 0 59278 37800.00000 0 -19486686.954 7634665.169 -14587035.443 10 0 59278 38700.00000 0 -21112064.331 7888844.797 -11956806.221 10 0 59278 39600.00000 0 -22379809.737 8213756.595 -9094443.793 10 0 59278 40500.00000 0 -23265045.441 8555871.530 -6055555.416 10 0 59278 41400.00000 0 -23755899.862 8858986.520 -2899149.806 10 0 59278 42300.00000 0 -23853862.949 9066807.179 313508.734 10 0 59278 43200.00000 0 -23573599.169 9125542.040 3520088.390 10 0 59278 44100.00000 0 -22942227.056 8986398.458 6658396.991 10 0 59278 45000.00000 0 -21998096.487 8607874.674 9667584.720 10 0 59278 45900.00000 0 -20789115.788 7957751.165 12489319.227 10 0 59278 46800.00000 0 -19370699.318 7014697.135 15068910.669 10 0 59278 47700.00000 0 -17803421.862 5769424.174 17356365.225 10 0 59278 48600.00000 0 -16150478.018 4225338.070 19307347.330 10 0 59278 49500.00000 0 -14475052.619 2398660.546 20884032.725 10 0 59278 50400.00000 0 -12837711.650 318014.830 22055836.477 10 0 59278 51300.00000 0 -11293921.978 -1976509.036 22800002.621 10 0 59278 52200.00000 0 -9891802.696 -4434771.765 23102044.578 10 0 59278 53100.00000 0 -8670201.213 -6998427.882 22956028.090 10 0 59278 54000.00000 0 -7657173.733 -9603119.455 22364691.283 10 0 59278 54900.00000 0 -6868933.025 -12180931.015 21339399.196 10 0 59278 55800.00000 0 -6309307.171 -14663005.162 19899933.043 10 0 59278 56700.00000 0 -5969731.789 -16982211.433 18074117.424 10 0 59278 57600.00000 0 -5829776.069 -19075758.407 15897291.602 10 0 59278 58500.00000 0 -5858180.769 -20887640.751 13411634.008 10 0 59278 59400.00000 0 -6014364.655 -22370819.434 10665351.993 10 0 59278 60300.00000 0 -6250336.109 -23489043.892 7711751.604 10 0 59278 61200.00000 0 -6512929.207 -24218239.494 4608204.949 10 0 59278 62100.00000 0 -6746269.541 -24547401.647 1415034.900 10 0 59278 63000.00000 0 -6894364.898 -24478958.461 -1805661.085 10 0 59278 63900.00000 0 -6903710.260 -24028586.247 -4991224.542 10 0 59278 64800.00000 0 -6725795.657 -23224485.321 -8079662.683 10 0 59278 65700.00000 0 -6319409.263 -22106146.588 -11010863.343 10 0 59278 66600.00000 0 -5652636.752 -20722661.047 -13727773.437 10 0 59278 67500.00000 0 -4704470.781 -19130643.881 -16177517.062 10 0 59278 68400.00000 0 -3465961.094 -17391861.100 -18312430.692 10 0 59278 69300.00000 0 -1940855.364 -15570659.297 -20090994.677 10 0 59278 70200.00000 0 -145702.597 -13731307.175 -21478642.694 10 0 59278 71100.00000 0 1890586.320 -11935360.921 -22448433.418 10 0 59278 72000.00000 0 4127703.201 -10239164.236 -22981571.535 10 0 59278 72900.00000 0 6515392.551 -8691587.688 -23067768.487 10 0 59278 73800.00000 0 8995326.855 -7332101.611 -22705436.440 10 0 59278 74700.00000 0 11503329.129 -6189262.497 -21901712.294 10 0 59278 75600.00000 0 13971850.438 -5279675.085 -20672311.851 10 0 59278 76500.00000 0 16332599.376 -4607472.267 -19041217.394 10 0 59278 77400.00000 0 18519214.237 -4164333.061 -17040205.167 10 0 59278 78300.00000 0 20469866.908 -3930036.267 -14708222.203 10 0 59278 79200.00000 0 22129690.417 -3873524.955 -12090624.783 10 0 59278 80100.00000 0 23452929.403 -3954435.523 -9238293.504 10 0 59278 81000.00000 0 24404724.422 -4125025.622 -6206642.315 10 0 59278 81900.00000 0 24962456.341 -4332418.575 -3054540.796 10 0 59278 82800.00000 0 25116595.401 -4521068.723 156829.105 10 0 59278 83700.00000 0 24871020.378 -4635342.985 3365159.636 10 0 59278 84600.00000 0 24242795.330 -4622109.155 6508224.002 10 0 59278 85500.00000 0 23261414.121 -4433221.376 9525079.811 99